lobby

Flag for U.S.A. Weather past 2 weeks in Portsmouth, Virginia, U.S.A.

Now
65 °F

Passing clouds.


Feels Like: 65 °F
Forecast: 62 / 69 °F
Wind: 21 mph from Northeast

Location: Norfolk Naval Air Station

Current Time: Sep 23, 2014 at 5:06:02 AM

Latest Report: Sep 23, 2014 at 3:59 AM


Visibility: 10 mi

Pressure: 30.22 "Hg

Humidity: 59%

Dew point: 50 °F

Location of PortsmouthLocation

Historic Weather in Portsmouth — Graph

°F

Portsmouth temperature yesterday

Maximum temperature yesterday: 77 °F (at 12:59 AM)
Minimum temperature yesterday: 71 °F (at 7:59 PM)
Average temperature yesterday: 74 °F

Past Weeks' High & Low Weather Summary

 TemperatureHumidityPressure
High87 °F (Sep 11, 1:59 PM)97% (Sep 9, 3:59 AM)30.29 "Hg (Sep 9, 3:59 AM)
Low63 °F (Sep 18, 3:59 AM)40% (Sep 22, 10:59 AM)29.72 "Hg (Sep 21, 3:59 PM)
Average74 °F71%30.07 "Hg
* Reported Sep 8 3:59 AM — Sep 23 3:59 AM, Portsmouth, Weather by CustomWeather, © 2014

Note: Actual official high and low records may vary slightly from our data, if they occured in-between our weather recording intervals... More about our weather records

Advertising

Portsmouth weather history for previous 24 hours

 ConditionsComfort  
Time TempWeatherWind HumidityBarometerVisibility
3:59 AM
Sep 23
65 °FPassing clouds.21 mph59%30.22 "Hg10 mi
2:59 AM67 °FPassing clouds.18 mph59%30.20 "Hg10 mi
1:59 AM68 °FPassing clouds.18 mph61%30.19 "Hg10 mi
12:59 AM71 °FPassing clouds.16 mph53%30.18 "Hg10 mi
11:59 PM
Sep 22
71 °FPassing clouds.14 mph49%30.17 "Hg10 mi
10:59 PM71 °FPassing clouds.15 mph47%30.16 "Hg10 mi
9:59 PM71 °FPassing clouds.13 mph51%30.15 "Hg10 mi
8:59 PM71 °FPassing clouds.13 mph57%30.13 "Hg10 mi
7:59 PM71 °FPassing clouds.8 mph59%30.10 "Hg10 mi
6:59 PM72 °FPassing clouds.9 mph57%30.07 "Hg10 mi
5:59 PM74 °FPassing clouds.12 mph52%30.05 "Hg10 mi
4:59 PM77 °FScattered clouds.9 mph44%30.04 "Hg10 mi
3:59 PM77 °FScattered clouds.8 mph44%30.03 "Hg10 mi
2:59 PM77 °FScattered clouds.8 mph40%30.01 "Hg10 mi
1:59 PM77 °FScattered clouds.8 mph42%30.02 "Hg10 mi
12:59 PM77 °FPassing clouds.8 mph40%30.03 "Hg10 mi
11:59 AM77 °FPassing clouds.8 mph42%30.01 "Hg10 mi
10:59 AM76 °FPassing clouds.10 mph40%30.02 "Hg10 mi
9:59 AM75 °FPassing clouds.13 mph45%30.01 "Hg10 mi
8:59 AM73 °FPassing clouds.12 mph51%29.99 "Hg10 mi
7:59 AM72 °FScattered clouds.9 mph55%29.96 "Hg10 mi
6:59 AM72 °FPassing clouds.No wind64%29.93 "Hg10 mi
5:59 AM72 °FPartly cloudy.8 mph73%29.90 "Hg10 mi
Weather by CustomWeather, © 2014

See weather overviewHow to use our weather pages